Wind_Speed
11 11 11 10 10 10 9 9 9 9 8 8 8 8 8 8 9 12 13 6 4 5 3 3 7 7 2 10 11 11 4 3 5 7 3 12 10 10 19 29 24 6 34 38 35
11 11 11 11 11 10 9 9 9 9 10 10 9 9 9 9 10 14 5 9 8 4 4 7 7 1 3 10 8 1 3 11 11 10 1 8 7 4 15 21 20 29 33 38 34
12 12 12 11 11 10 10 10 10 9 10 11 11 10 9 9 6 2 3 11 7 5 6 9 6 8 7 15 12 8 5 10 15 18 9 5 8 7 13 7 29 33 43 39 34
13 13 13 12 12 11 10 10 10 10 11 12 12 11 9 5 2 2 3 6 7 6 10 9 5 3 2 6 10 5 7 13 6 12 6 3 2 8 16 6 30 36 41 37 36
14 14 14 13 13 11 10 10 10 11 13 13 12 10 8 3 4 2 8 4 8 10 12 10 6 3 2 3 8 4 10 14 13 14 11 3 7 6 11 12 23 26 34 35 32
15 14 14 15 15 13 11 9 9 11 13 12 11 9 5 3 1 6 6 5 8 11 11 11 4 11 14 9 7 12 16 10 8 10 12 8 4 6 7 17 24 26 30 34 30
16 16 15 15 15 14 12 10 10 12 12 10 8 6 6 3 3 6 4 6 4 7 7 4 13 14 11 3 8 15 12 9 4 3 4 9 2 2 10 5 15 22 26 29 31
18 17 17 17 16 15 12 10 10 12 9 6 5 4 6 2 5 4 2 4 2 4 9 9 12 11 1 6 3 3 3 4 5 7 4 8 4 6 12 9 5 12 18 28 23
20 19 18 17 17 15 11 11 10 7 5 4 5 5 7 5 10 10 8 7 4 3 7 7 11 3 4 3 3 2 5 3 5 9 2 5 5 10 16 12 4 5 23 29 27
21 20 20 18 18 15 9 9 8 6 5 7 9 8 8 5 6 12 11 12 10 11 8 4 2 3 3 4 4 4 4 6 8 8 9 5 7 6 18 13 9 6 11 22 25
23 22 21 18 17 15 6 6 9 2 8 12 18 18 25 10 5 9 5 5 6 1 5 3 4 6 11 7 7 4 6 11 5 9 7 13 5 9 17 17 14 15 13 17 23
22 22 21 19 16 13 7 3 10 13 12 22 23 26 25 13 7 9 13 9 3 4 1 5 7 12 7 8 7 7 7 3 2 10 5 9 13 10 15 21 24 23 23 17 20
23 22 21 18 13 8 8 6 17 22 6 20 16 17 21 15 15 14 17 15 5 3 5 7 11 10 8 11 9 8 9 9 8 13 11 7 6 9 9 11 21 24 26 24 22
24 23 22 19 8 7 7 8 11 13 4 7 4 8 16 12 5 14 23 13 4 11 6 7 18 11 9 9 6 6 3 14 14 11 5 7 4 5 11 17 16 27 23 27 31
25 24 22 20 17 13 9 6 5 2 3 5 7 6 16 11 6 12 23 15 7 9 1 10 7 5 8 7 4 6 3 8 6 5 4 1 3 5 7 11 18 26 30 33 36
26 25 24 21 19 11 8 6 6 5 6 4 10 7 8 8 9 19 13 13 6 3 4 9 14 5 8 2 2 3 6 8 5 3 2 6 6 5 5 11 16 23 33 32 36
28 26 26 25 18 8 6 5 4 3 5 6 7 7 9 7 4 7 6 4 5 2 4 7 5 4 4 2 5 7 7 4 4 3 6 2 5 8 6 7 16 24 31 32 32
30 29 27 22 15 11 5 4 4 5 6 2 2 6 9 9 7 7 6 4 5 3 2 3 7 6 3 6 6 3 8 6 5 4 6 2 4 4 3 8 19 24 26 27 29
32 31 25 11 13 14 9 3 8 5 4 7 6 6 5 6 8 7 10 8 8 10 7 5 6 2 7 5 9 2 1 7 5 1 2 2 2 3 7 6 4 6 13 26 24
30 31 13 0 11 19 4 5 5 0 8 5 2 3 5 6 8 8 10 8 6 10 9 6 3 2 5 5 0 9 5 4 3 2 2 3 1 4 1 2 0 6 18 27 22
24 15 17 16 15 9 3 6 6 11 16 7 7 7 7 8 9 8 9 4 8 7 8 3 4 6 4 3 8 1 1 3 5 5 4 2 5 4 2 2 3 3 5 15 19
11 4 7 13 4 3 3 5 8 16 25 9 6 8 7 7 8 6 2 3 7 6 4 2 6 1 5 5 3 7 9 6 5 5 2 4 5 3 3 7 4 2 5 6 19
18 7 4 10 2 3 6 7 12 14 13 5 7 12 11 9 3 5 7 2 14 5 5 0 2 3 9 7 7 5 3 2 3 3 5 5 5 4 5 9 4 6 8 8 4
7 4 7 4 8 2 6 6 7 15 12 13 10 15 11 6 3 5 6 3 14 12 12 8 3 6 6 6 2 5 8 3 5 3 4 5 5 4 1 6 8 8 3 3 5
3 3 7 4 7 7 3 4 10 11 10 14 6 7 12 5 3 5 4 6 7 12 5 5 5 5 6 6 2 4 7 7 3 5 5 3 5 5 5 6 7 6 3 4 7
5 5 8 11 12 7 3 4 8 13 6 5 12 22 16 6 9 9 8 5 5 2 4 2 2 4 2 4 4 3 6 6 5 4 5 4 1 4 5 7 4 3 6 7 9
3 7 4 6 6 4 3 7 16 10 10 14 19 16 9 6 14 21 21 23 16 10 5 7 5 3 2 3 3 3 3 2 3 6 2 3 5 6 5 8 13 11 8 6 5
Wind_Direction
11 10 9 6 4 2 2 2 1 355 346 335 325 317 304 287 272 264 252 210 177 219 284 192 172 168 206 145 132 91 100 187 215 244 339 353 61 150 144 139 154 156 154 160 170
5 4 2 359 356 354 354 353 351 349 343 337 332 323 315 306 286 263 265 217 200 204 244 199 195 251 260 140 91 1 149 209 214 205 151 328 57 12 144 150 120 126 148 155 162
1 359 357 354 350 346 342 341 341 340 336 332 330 326 323 325 312 5 225 213 230 218 229 216 232 280 211 180 152 187 200 199 226 227 218 331 6 37 120 106 146 145 149 162 165
0 358 353 350 345 341 335 331 330 329 328 327 324 322 321 319 179 19 346 211 214 214 206 210 241 238 201 148 172 150 196 185 193 217 155 151 23 46 80 126 153 154 157 165 171
354 353 350 347 342 337 330 322 320 321 323 322 319 318 321 285 265 335 319 221 212 203 201 211 286 304 294 147 138 187 155 181 160 166 184 116 72 98 72 168 148 162 164 167 173
351 348 345 343 340 335 329 319 312 315 320 320 314 309 309 282 30 348 285 216 197 195 195 218 250 316 294 210 208 169 93 78 93 132 164 163 115 166 120 135 169 170 168 180 180
350 345 341 338 337 333 326 316 312 316 321 320 314 300 260 234 39 349 68 112 146 194 212 276 311 305 288 318 160 151 110 85 54 171 236 137 118 173 156 133 178 178 186 186 189
353 346 340 335 333 330 324 312 309 312 320 330 341 319 254 216 235 237 238 161 172 286 289 318 316 307 253 316 99 123 71 118 277 326 183 157 247 244 200 200 164 190 216 193 168
351 348 341 334 328 327 325 313 313 311 310 316 311 316 277 229 229 233 241 248 232 258 265 300 307 323 322 89 49 242 153 105 301 203 262 153 260 235 194 200 188 231 188 189 176
347 345 342 337 326 324 326 319 317 299 289 288 269 303 245 232 224 197 219 248 269 238 251 270 357 25 355 83 210 208 131 177 184 205 210 172 242 273 207 213 191 227 176 199 189
343 341 339 338 324 318 314 340 359 348 301 269 282 265 286 252 186 192 193 222 260 178 174 224 71 227 236 202 217 232 248 169 215 161 166 200 220 224 222 222 230 220 207 176 204
338 336 336 336 320 310 302 352 18 319 302 287 276 272 271 226 208 218 200 202 232 243 142 13 237 238 261 281 269 273 195 174 107 171 149 190 225 210 210 219 218 211 206 191 182
334 331 331 332 315 297 264 294 331 330 287 298 256 249 253 215 212 214 205 201 185 245 218 181 240 216 221 265 270 274 173 177 167 192 211 147 281 182 229 240 224 229 222 210 189
334 330 327 329 313 277 282 331 334 356 26 276 203 244 231 210 258 241 196 187 196 220 215 216 255 229 241 237 187 206 96 184 163 151 204 157 243 250 193 211 218 231 208 204 197
336 331 323 319 302 290 295 312 355 358 349 240 199 232 189 180 149 181 203 204 230 252 103 259 274 206 207 187 158 217 21 134 145 173 100 282 46 271 153 211 217 212 222 207 203
336 331 317 310 295 318 279 295 346 53 253 255 171 173 133 209 208 177 184 202 240 241 234 243 257 182 201 159 140 82 59 40 55 113 14 211 156 278 193 213 210 210 218 214 214
326 327 312 296 279 287 294 322 48 174 307 198 181 159 179 205 183 167 178 201 183 84 308 325 290 294 136 137 13 79 62 6 356 15 222 124 148 244 297 246 200 202 212 216 218
323 322 311 282 269 249 228 74 207 235 248 302 168 180 185 176 201 201 146 208 262 127 58 182 315 194 209 156 177 178 142 155 195 186 259 339 211 256 292 318 214 210 210 209 218
329 326 316 298 224 205 177 128 203 220 321 7 355 158 246 224 160 149 195 201 208 165 174 170 265 145 162 163 127 265 119 185 122 75 41 245 319 5 7 30 67 211 209 219 205
332 329 346 278 178 175 98 233 240 289 13 31 313 164 290 224 149 172 181 219 219 185 165 210 31 261 185 72 314 150 185 50 15 159 291 321 246 213 212 74 334 270 241 226 227
335 329 350 145 135 150 168 243 304 324 352 346 330 286 261 259 180 194 204 289 158 149 118 113 97 300 90 178 189 337 334 78 116 140 167 182 262 249 129 304 192 251 259 227 227
346 348 118 153 93 161 209 224 274 292 300 294 268 235 270 273 225 175 118 135 127 114 93 33 130 157 231 275 251 193 198 147 131 244 166 149 267 268 128 188 175 147 137 157 209
333 293 12 208 254 269 297 282 267 277 274 264 285 292 288 292 276 123 109 84 112 96 145 162 19 42 347 354 5 31 23 176 129 101 191 141 249 84 103 116 123 13 15 49 27
338 345 333 356 46 62 5 310 323 319 294 287 265 277 278 262 215 167 125 144 111 114 117 93 90 142 184 202 192 319 311 320 114 110 176 207 177 217 155 109 96 148 207 17 72
337 299 12 336 334 331 347 279 329 357 349 330 292 345 319 226 197 144 131 99 45 127 81 103 177 189 206 224 269 249 291 311 209 210 157 230 183 235 172 156 146 124 78 143 159
3 1 335 303 320 334 306 278 311 349 328 343 343 327 318 232 199 188 140 133 165 228 124 57 226 161 269 289 305 311 348 321 83 111 123 118 59 237 171 157 160 143 122 152 169
307 297 299 284 314 332 281 327 315 13 314 340 315 313 311 271 258 209 179 170 165 148 150 140 135 99 248 7 0 13 231 69 63 51 82 101 226 179 249 215 180 174 161 148 180
Height
1530 1529 1527 1525 1524 1522 1520 1519 1517 1516 1514 1512 1511 1510 1509 1508 1508 1508 1507 1510 1511 1512 1514 1515 1516 1519 1521 1524 1525 1530 1543 1547 1539 1538 1523 1522 1518 1519 1518 1519 1524 1524 1528 1536 1541
1531 1529 1527 1525 1523 1521 1520 1518 1517 1515 1513 1512 1510 1509 1508 1507 1506 1504 1506 1507 1508 1511 1512 1513 1514 1518 1520 1525 1528 1533 1541 1537 1522 1525 1526 1525 1523 1521 1523 1525 1527 1529 1533 1538 1543
1531 1529 1527 1525 1523 1521 1519 1517 1516 1515 1513 1511 1509 1508 1507 1506 1505 1503 1503 1504 1507 1508 1510 1511 1513 1515 1516 1518 1524 1523 1531 1523 1519 1520 1525 1528 1523 1520 1520 1526 1526 1528 1534 1538 1541
1531 1529 1526 1524 1522 1520 1518 1516 1515 1513 1512 1510 1508 1507 1506 1506 1507 1503 1503 1504 1505 1506 1508 1509 1512 1512 1510 1514 1516 1519 1517 1520 1516 1520 1525 1527 1525 1525 1524 1526 1526 1529 1531 1536 1540
1530 1528 1526 1523 1521 1519 1517 1515 1513 1512 1510 1509 1507 1506 1505 1505 1502 1502 1502 1501 1503 1505 1506 1508 1510 1512 1513 1513 1513 1514 1515 1519 1517 1520 1523 1522 1526 1529 1530 1529 1532 1534 1535 1537 1538
1530 1527 1525 1522 1520 1517 1515 1514 1512 1510 1509 1507 1506 1505 1505 1505 1501 1501 1500 1500 1501 1503 1505 1508 1509 1511 1510 1509 1510 1509 1514 1520 1521 1522 1521 1523 1527 1526 1527 1527 1530 1533 1534 1536 1539
1529 1526 1523 1521 1518 1516 1514 1512 1510 1509 1507 1505 1504 1503 1503 1501 1500 1501 1500 1500 1501 1503 1505 1508 1509 1511 1507 1506 1505 1508 1520 1520 1521 1519 1522 1524 1527 1526 1525 1527 1529 1533 1533 1535 1537
1528 1525 1522 1519 1516 1514 1512 1510 1509 1507 1506 1505 1503 1503 1499 1499 1499 1500 1501 1500 1501 1502 1503 1505 1506 1506 1505 1505 1506 1510 1514 1527 1522 1521 1518 1522 1533 1522 1524 1526 1528 1530 1531 1532 1534
1528 1524 1521 1518 1515 1512 1511 1509 1507 1505 1505 1504 1504 1503 1497 1496 1497 1498 1499 1500 1501 1501 1502 1504 1504 1503 1503 1508 1518 1513 1528 1529 1528 1519 1519 1521 1528 1519 1522 1522 1526 1526 1528 1530 1532
1527 1524 1520 1517 1513 1510 1509 1508 1506 1505 1505 1504 1503 1505 1496 1494 1494 1495 1498 1499 1500 1500 1502 1503 1503 1506 1506 1515 1534 1522 1519 1519 1519 1513 1515 1521 1521 1516 1515 1518 1523 1524 1526 1528 1530
1526 1522 1519 1516 1512 1509 1509 1508 1509 1507 1503 1501 1499 1496 1494 1493 1494 1495 1496 1497 1498 1500 1503 1502 1512 1518 1504 1504 1502 1506 1507 1511 1510 1506 1512 1514 1516 1514 1513 1515 1517 1520 1522 1525 1527
1524 1520 1517 1515 1511 1509 1508 1508 1508 1511 1499 1494 1491 1490 1490 1493 1493 1492 1494 1497 1497 1502 1501 1508 1515 1500 1497 1497 1501 1504 1508 1511 1508 1505 1510 1514 1514 1512 1512 1509 1511 1515 1519 1523 1527
1522 1518 1514 1512 1509 1508 1507 1508 1507 1504 1503 1484 1483 1484 1484 1488 1487 1489 1493 1494 1496 1501 1501 1511 1497 1492 1498 1498 1502 1501 1505 1506 1507 1504 1506 1512 1522 1516 1510 1512 1512 1515 1519 1522 1524
1520 1516 1512 1508 1509 1506 1506 1507 1505 1502 1510 1490 1479 1480 1482 1484 1484 1484 1488 1491 1493 1497 1496 1500 1486 1492 1493 1497 1496 1502 1484 1489 1495 1511 1530 1505 1539 1511 1506 1508 1511 1509 1512 1514 1518
1517 1514 1510 1508 1506 1504 1506 1504 1502 1503 1535 1478 1476 1476 1477 1481 1481 1481 1483 1487 1490 1491 1494 1495 1487 1488 1492 1487 1483 1493 1481 1490 1495 1509 1513 1509 1526 1511 1502 1510 1502 1501 1504 1507 1511
1514 1511 1506 1505 1503 1503 1501 1501 1502 1517 1525 1478 1472 1473 1477 1478 1480 1480 1482 1484 1484 1485 1486 1486 1478 1477 1478 1475 1477 1481 1488 1500 1506 1516 1536 1515 1521 1518 1507 1493 1490 1494 1497 1502 1506
1510 1507 1502 1499 1499 1500 1501 1502 1517 1525 1477 1475 1474 1471 1474 1478 1480 1480 1482 1485 1493 1500 1500 1485 1480 1473 1472 1480 1480 1488 1510 1543 1539 1543 1542 1506 1519 1507 1490 1482 1480 1484 1488 1496 1502
1504 1499 1494 1492 1494 1497 1498 1504 1521 1488 1481 1465 1468 1470 1478 1472 1478 1479 1484 1489 1482 1488 1503 1504 1508 1477 1470 1479 1489 1488 1504 1537 1546 1550 1534 1506 1518 1505 1486 1479 1478 1481 1485 1493 1497
1498 1492 1484 1484 1486 1491 1497 1514 1503 1487 1474 1477 1467 1477 1477 1468 1472 1478 1482 1482 1475 1479 1499 1503 1495 1467 1468 1470 1478 1490 1505 1497 1520 1524 1535 1522 1503 1492 1488 1484 1484 1486 1488 1490 1494
1495 1486 1481 1479 1483 1489 1496 1503 1489 1478 1478 1478 1484 1474 1482 1469 1472 1478 1480 1464 1468 1467 1470 1481 1496 1471 1467 1470 1474 1483 1484 1510 1526 1533 1532 1525 1514 1516 1497 1494 1489 1486 1485 1486 1491
1495 1488 1483 1481 1485 1490 1501 1498 1483 1479 1483 1482 1484 1485 1477 1476 1462 1471 1467 1457 1457 1463 1463 1471 1487 1488 1475 1482 1487 1489 1495 1499 1510 1522 1536 1540 1527 1495 1494 1491 1491 1489 1486 1486 1490
1496 1495 1489 1489 1489 1491 1496 1488 1483 1480 1482 1482 1475 1475 1473 1464 1460 1462 1464 1458 1454 1456 1470 1471 1491 1502 1488 1475 1473 1478 1486 1495 1520 1520 1522 1525 1523 1489 1489 1489 1488 1489 1489 1488 1489
1497 1493 1490 1490 1497 1493 1487 1484 1481 1479 1479 1477 1471 1469 1464 1467 1458 1454 1456 1458 1455 1460 1469 1470 1496 1514 1502 1490 1481 1486 1483 1486 1496 1506 1520 1527 1523 1493 1487 1488 1489 1491 1493 1496 1497
1501 1498 1488 1487 1489 1490 1491 1487 1482 1476 1472 1471 1465 1460 1460 1459 1449 1458 1458 1458 1456 1459 1464 1467 1492 1503 1519 1507 1497 1496 1490 1483 1494 1513 1512 1512 1501 1492 1491 1491 1488 1489 1489 1491 1495
1504 1500 1499 1498 1491 1491 1491 1488 1482 1476 1467 1466 1459 1460 1460 1457 1453 1457 1455 1458 1461 1461 1465 1473 1495 1493 1493 1489 1487 1488 1487 1484 1488 1490 1500 1496 1497 1493 1492 1490 1488 1489 1489 1490 1491
1506 1504 1501 1497 1494 1491 1488 1486 1482 1479 1481 1472 1471 1460 1458 1457 1453 1456 1452 1457 1462 1464 1467 1472 1492 1488 1489 1485 1487 1489 1484 1478 1482 1485 1489 1492 1493 1489 1490 1490 1489 1489 1490 1489 1489
1505 1505 1503 1497 1494 1494 1489 1487 1482 1480 1475 1474 1472 1465 1453 1446 1441 1437 1437 1443 1449 1460 1470 1477 1488 1500 1502 1491 1489 1501 1485 1483 1484 1485 1486 1498 1489 1487 1487 1487 1488 1487 1487 1489 1491